国际通讯卫星 36 星 (INTELSAT 36 (IS-36))

导读 | 星芒AI

INTELSAT 36(IS-36)是由空客防务与航天公司为国际通信卫星组织(Intelsat)建造的一颗高通量通信卫星,于2021年12月18日由阿丽亚娜5号火箭从法属圭亚那发射升空。该卫星基于E3000平台,部署在东经31.5度轨道位置,主要为欧洲、非洲和中东地区提供广播、宽带和企业通信服务。IS-36配备了C波段和Ku波段转发器,具备增强的灵活性和传输能力,旨在满足日益增长的带宽需求,并支持数字电视和互联网服务的扩展。

基本信息
目录编号:
41747
目录名称:
INTELSAT 36
国际标识:
2016-053A
轨道中心:
EARTH
卫星名称:
国际通讯卫星 36 星
卫星全名:
国际通讯卫星 36 星 (INTELSAT 36 (IS-36))
卫星状态:
在轨 (已飞行3353 天)
发射日期:
2016-08-24 UTC
国别 :
(ITSO)
星等 :
--
轨道信息
数据来源 国际轨道数据 AOE轨道数据
星历时间 2025-10-28T23:04:54+0800
15小时前
查看轨道信息
2025-10-29T05:00:00+0800
9小时前
查看轨道信息
半长轴 42165.065km 42164.953km
偏心率 0.0001419 0.0001382
轨道倾角 0.013° 0.012°
近地点辐角 43.344° 44.110°
升交点赤经 311.722° 310.851°
平近点角 336.897° 66.019°
近地点 35780.946km 35780.99km
远地点 35792.914km 35792.646km
周期 1436.114分钟 1436.108分钟
每日圈数 1.002706 1.00271
详细信息
卫星平台:
LS-1300
平衡模式:
三轴稳定
覆盖范围:
全球
运营商:
国际卫星通信公司
运营商所在国:
美国
制造商(研发单位):
劳拉空间系统公司
制造商所在国:
美国
使用方式:
暂无
卫星简介
从1965年4月至1984年3月,国际通信卫星组织发射了5代、6种不同性能的卫星共计35颗,除6颗卫星因运载火箭和远地点发动机故障而发射失败外,其余29颗卫星均被送到了预定的静止轨道位置。1984年8月前后,国际通信卫星组织利用部署在大西洋、太平洋、印度洋上空的15颗国际通信卫星,为遍布世界各地170多个国家或地区提供电话、电传、电报、电视和数据传输等电信业务;该卫星仍在工作。
2D轨道图
3D轨道图
轨道高度分析图
轨道倾角分析图
轨道综合分析图
查看轨道综合分析图